2025-138C

Last updated on Wed Jul 02 2025 00:02:08 GMT+0000 (Coordinated Universal Time)

1 64623U 25138C 25182.57854902 .00002188 00000+0 12123-3 0 9998 2 64623 97.4349 187.0929 0013618 277.2030 82.7638 15.14784320 734
UTC large
Height (km)
Speed (km/s)
/
Latitude / Longitude
Inclination (degrees)
Orbital Period (minutes)
Azimuth
Elevation
Range (km)
Doppler Factor

Next 0 passes for location: London (51.5072 / 0.1276)

Sorry there are no passes over London.